Prievidza, Slovakia

8:40 AM CEST on May 23, 2017 (GMT +0200)
Prievidza

Weather History for 11867 - September, 2013

Change the Weather History Date:

Tuesday, September 17, 2013

  Actual Average Record
Temperature  
Mean Temperature 52 °F -  
Max Temperature 59 °F - - ()
Min Temperature 46 °F - - ()
Degree Days  
Heating Degree Days 12    
Growing Degree Days 2 (Base 50)    
Moisture  
Dew Point 50 °F    
Average Humidity 86    
Maximum Humidity 99    
Minimum Humidity 69    
Precipitation  
Precipitation 0.12 in - - ()
Sea Level Pressure  
Sea Level Pressure 29.57 in    
Wind  
Wind Speed 4 mph ()    
Max Wind Speed 11 mph    
Max Gust Speed -    
Visibility 8.3 miles    
Events Rain    
T = Trace of Precipitation, MM = Missing Value Source: Averaged Metar Reports

Daily Weather History Graph

Daily Weather History Graph

Search for Another Location

Airport or City:

Trip Planner

Search our weather history database for the weather conditions in past years. The results will help you decide how hot, cold, wet, or windy it might be!

Date:

Astronomy

Sep. 17, 2013 Rise Set
Actual Time 6:25 AM CEST 6:54 PM CEST
Civil Twilight 5:53 AM CEST 7:25 PM CEST
Nautical Twilight 5:15 AM CEST 8:03 PM CEST
Astronomical Twilight 4:36 AM CEST 8:42 PM CEST
Moon 5:35 PM CEST (9/17) 3:50 AM CEST (9/17)
Length of Visible Light 13h 32m
Length of Day
12h 29m
Waxing Gibbous, 94% of the Moon is Illuminated
Sep 17
Waxing Gibbous
Sep 19
Full
Sep 27
Last Quarter
Oct 5
New
Oct 12
First Quarter

Hourly Weather History & Observations

Time (CEST) Temp. Dew Point Humidity Pressure Visibility Wind Dir Wind Speed Gust Speed Precip Events Conditions
12:00 AM 58 °F 55 °F 87% 29.57 in 28 mi 2.2 mph - -  
1:00 AM 58 °F 56 °F 91% 29.53 in 25 mi Calm Calm - - Rain Light Rain
2:00 AM 58 °F 56 °F 91% 29.50 in 5 mi 2.2 mph - - Rain Light Rain Showers
3:00 AM 57 °F 56 °F 97% 29.47 in 10 mi 2.2 mph - - Rain Light Rain
5:00 AM 56 °F 55 °F 94% 29.47 in 3 mi SE 4.5 mph - - Rain Rain
6:00 AM 54 °F 54 °F 98% 29.49 in 3 mi WSW 6.7 mph - - Rain Rain
7:00 AM 54 °F 54 °F 99% 29.49 in 22 mi 4.5 mph - - Rain Light Rain
8:00 AM 55 °F 54 °F 98% 29.48 in 28 mi SSW 4.5 mph - - Rain Light Rain
9:00 AM 57 °F 54 °F 87% 29.48 in 25 mi Calm Calm - - Rain Light Rain
10:00 AM 58 °F 54 °F 84% 29.48 in 31 mi WSW 6.7 mph - - Rain Light Rain
11:00 AM 59 °F 56 °F 85% 29.48 in 28 mi SSW 6.7 mph - -   Partly Cloudy
12:00 PM 56 °F 53 °F 86% 29.49 in 31 mi WNW 8.9 mph - - Rain Light Rain
2:00 PM 53 °F 48 °F 79% 29.55 in 31 mi West 6.7 mph - -   Partly Cloudy
4:00 PM 49 °F 45 °F 83% 29.63 in 10 mi West 11.2 mph - - Rain Light Rain
5:00 PM 48 °F 41 °F 69% 29.66 in 31 mi North 11.2 mph - - Rain Light Rain
6:00 PM 47 °F 41 °F 74% 29.68 in 31 mi North 6.7 mph - - Rain Light Rain
7:00 PM 47 °F 41 °F 72% 29.68 in 31 mi North 6.7 mph - - Rain Light Rain
8:00 PM 46 °F 40 °F 74% 29.69 in 31 mi 4.5 mph - -   Partly Cloudy
9:00 PM 46 °F 42 °F 82% 29.70 in 31 mi Calm Calm - -   Overcast
10:00 PM 46 °F 43 °F 87% 29.70 in 25 mi 2.2 mph - -   Overcast
11:00 PM 46 °F 43 °F 85% 29.70 in 19 mi 2.2 mph - -